Date String (YYYY-MM-DD hh:mm:ss) UTC,Instrument flags,Ambient pressure (hPa),Sample flow (lpm),Bypass flow (lpm),Sample temperature (°C),Ambient temperature (°C),ASC tube jacket temperature (°C),LED temperature (°C),Box temperature (°C),Sample RH (%),Span deviation,Mass concentration (μg/m³),Mass concentration (μg/m³),Mass concentration (μg/m³)
DateTimeUTC,F1_M11,P_M11,Q1_M11,Q2_M11,T1_M11,T2_M11,T3_M11,T4_M11,T5_M11,U1_M11,ZSPAN_M11,X0_M11,X2_M11,X1_M11
2022-07-30 01:00:00,,0829.4,5.00,0.00,29.5,28.2,00.0,38.2,31.5,34.2,0000.0,0011.23,0005.09,0004.47
2022-07-30 01:01:00,,0829.4,5.00,0.00,29.5,28.3,00.0,38.2,31.5,34.0,0000.0,0011.59,0005.15,0004.49
2022-07-30 01:02:00,,0829.5,5.01,0.00,29.5,28.4,00.0,38.3,31.6,33.8,0000.0,0011.61,0005.18,0004.49
2022-07-30 01:03:00,,0829.5,4.99,0.00,29.6,28.6,00.0,38.3,31.7,33.6,0000.0,0011.40,0005.14,0004.48
2022-07-30 01:04:00,,0829.5,5.00,0.00,29.6,28.6,00.0,38.3,31.7,33.3,0000.0,0010.48,0005.10,0004.46
2022-07-30 01:05:00,,0829.5,5.00,0.00,29.6,28.2,00.0,38.3,31.6,33.3,0000.0,0010.04,0005.05,0004.44
2022-07-30 01:06:00,,0829.5,5.00,0.00,29.6,27.8,00.0,38.3,31.5,33.6,0000.0,0009.90,0005.01,0004.43
2022-07-30 01:07:00,,0829.5,5.00,0.00,29.6,27.7,00.0,38.3,31.4,33.7,0000.0,0009.70,0004.99,0004.40
2022-07-30 01:08:00,,0829.5,5.00,0.00,29.5,27.7,00.0,38.3,31.4,34.1,0000.0,0009.46,0004.97,0004.40
2022-07-30 01:09:00,,0829.5,5.00,0.00,29.5,27.9,00.0,38.3,31.4,34.0,0000.0,0008.67,0004.93,0004.39
2022-07-30 01:10:00,,0829.5,4.99,0.00,29.5,28.0,00.0,38.3,31.5,34.0,0000.0,0008.88,0004.94,0004.40
2022-07-30 01:11:00,,0829.6,5.00,0.00,29.5,28.1,00.0,38.3,31.5,34.0,0000.0,0009.09,0004.92,0004.41
2022-07-30 01:12:00,,0829.5,5.00,0.00,29.6,28.3,00.0,38.3,31.6,34.1,0000.0,0009.13,0004.92,0004.42
2022-07-30 01:13:00,,0829.5,4.99,0.00,29.6,28.4,00.0,38.3,31.6,34.1,0000.0,0009.14,0004.91,0004.43
2022-07-30 01:14:00,,0829.5,5.01,0.00,29.6,28.5,00.0,38.3,31.6,34.0,0000.0,0009.27,0004.94,0004.44
2022-07-30 01:15:00,,0829.4,5.01,0.00,29.6,28.6,00.0,38.4,31.7,34.1,0000.0,0009.32,0004.97,0004.45
2022-07-30 01:16:00,,0829.5,4.99,0.00,29.7,28.6,00.0,38.4,31.7,33.9,0000.0,0009.34,0004.99,0004.46
2022-07-30 01:17:00,,0829.5,5.01,0.00,29.7,28.0,00.0,38.3,31.5,34.0,0000.0,0009.99,0005.01,0004.50
2022-07-30 01:18:00,,0829.5,4.99,0.00,29.6,27.4,00.0,38.3,31.4,34.3,0000.0,0010.19,0005.04,0004.53
2022-07-30 01:19:00,,0829.5,5.00,0.00,29.5,27.2,00.0,38.3,31.3,34.4,0000.0,0010.22,0005.04,0004.54
2022-07-30 01:20:00,,0829.5,4.99,0.00,29.5,27.2,00.0,38.3,31.2,34.7,0000.0,0010.23,0005.07,0004.57
2022-07-30 01:21:00,,0829.5,4.99,0.00,29.4,27.3,00.0,38.2,31.3,34.9,0000.0,0010.07,0005.09,0004.59
2022-07-30 01:22:00,,0829.5,5.01,0.00,29.4,27.5,00.0,38.2,31.3,34.8,0000.0,0009.59,0005.11,0004.61
2022-07-30 01:23:00,,0829.5,5.00,0.00,29.5,27.7,00.0,38.2,31.4,34.8,0000.0,0009.74,0005.15,0004.64
2022-07-30 01:24:00,,0829.5,5.00,0.00,29.5,27.8,00.0,38.2,31.4,35.0,0000.0,0009.92,0005.18,0004.66
2022-07-30 01:25:00,,0829.4,4.98,0.00,29.6,28.0,00.0,38.2,31.5,34.6,0000.0,0009.87,0005.19,0004.67
2022-07-30 01:26:00,,0829.5,5.00,0.00,29.7,28.2,00.0,38.3,31.6,34.5,0000.0,0009.88,0005.19,0004.67
2022-07-30 01:27:00,,0829.6,5.00,0.00,29.8,28.3,00.0,38.3,31.6,34.4,0000.0,0010.32,0005.21,0004.68
2022-07-30 01:28:00,,0829.5,5.02,0.00,29.8,28.4,00.0,38.3,31.6,34.2,0000.0,0010.52,0005.26,0004.69
2022-07-30 01:29:00,,0829.5,4.99,0.00,29.8,28.5,00.0,38.4,31.7,34.2,0000.0,0011.10,0005.30,0004.69
2022-07-30 01:30:00,,0829.6,5.01,0.00,29.9,28.6,00.0,38.4,31.7,34.2,0000.0,0011.41,0005.33,0004.71
2022-07-30 01:31:00,,0829.5,5.00,0.00,29.9,28.7,00.0,38.4,31.7,34.2,0000.0,0011.69,0005.35,0004.72
2022-07-30 01:32:00,,0829.5,5.00,0.00,29.9,28.4,00.0,38.4,31.7,34.3,0000.0,0011.56,0005.33,0004.72
2022-07-30 01:33:00,,0829.5,5.01,0.00,29.9,27.7,00.0,38.4,31.4,34.2,0000.0,0011.46,0005.34,0004.70
2022-07-30 01:34:00,,0829.5,4.99,0.00,29.8,27.2,00.0,38.4,31.3,34.1,0000.0,0011.07,0005.28,0004.66
2022-07-30 01:35:00,,0829.5,5.00,0.00,29.7,27.1,00.0,38.4,31.2,34.3,0000.0,0010.95,0005.26,0004.63
2022-07-30 01:36:00,,0829.6,5.00,0.00,29.6,27.2,00.0,38.4,31.3,34.4,0000.0,0010.99,0005.25,0004.61
2022-07-30 01:37:00,,0829.6,5.00,0.00,29.6,27.4,00.0,38.4,31.3,34.5,0000.0,0010.86,0005.19,0004.58
2022-07-30 01:38:00,,0829.6,5.01,0.00,29.6,27.6,00.0,38.4,31.4,34.6,0000.0,0010.37,0005.13,0004.54
2022-07-30 01:39:00,,0829.7,5.00,0.00,29.6,27.8,00.0,38.4,31.4,34.6,0000.0,0009.54,0005.06,0004.49
2022-07-30 01:40:00,,0829.7,4.99,0.00,29.6,27.9,00.0,38.4,31.5,34.8,0000.0,0008.72,0005.00,0004.45
2022-07-30 01:41:00,,0829.7,5.00,0.00,29.7,28.1,00.0,38.4,31.5,34.7,0000.0,0009.48,0004.96,0004.40
2022-07-30 01:42:00,,0829.8,5.01,0.00,29.7,28.3,00.0,38.4,31.6,34.8,0000.0,0009.38,0004.92,0004.36
2022-07-30 01:43:00,,0829.8,4.99,0.00,29.7,28.4,00.0,38.4,31.6,34.7,0000.0,0010.16,0004.91,0004.33
2022-07-30 01:44:00,,0829.8,5.01,0.00,29.7,28.5,00.0,38.4,31.7,34.7,0000.0,0010.22,0004.89,0004.31
2022-07-30 01:45:00,,0829.8,5.01,0.00,29.8,28.6,00.0,38.4,31.7,34.6,0000.0,0010.47,0004.90,0004.31
2022-07-30 01:46:00,,0829.8,4.99,0.00,29.8,28.7,00.0,38.5,31.8,34.5,0000.0,0010.56,0004.88,0004.30
2022-07-30 01:47:00,,0829.8,5.01,0.00,29.8,28.8,00.0,38.5,31.8,34.5,0000.0,0010.84,0004.87,0004.29
2022-07-30 01:48:00,,0829.8,4.99,0.00,29.9,28.4,00.0,38.5,31.7,34.3,0000.0,0011.52,0004.87,0004.29
2022-07-30 01:49:00,,0829.8,5.01,0.00,29.8,27.7,00.0,38.4,31.5,34.3,0000.0,0011.47,0004.86,0004.29
2022-07-30 01:50:00,,0829.8,4.99,0.00,29.7,27.3,00.0,38.4,31.4,34.5,0000.0,0011.54,0004.87,0004.29
2022-07-30 01:51:00,,0829.8,5.01,0.00,29.7,27.2,00.0,38.4,31.3,34.7,0000.0,0011.63,0004.84,0004.29
2022-07-30 01:52:00,,0829.8,5.00,0.00,29.6,27.3,00.0,38.4,31.3,35.0,0000.0,0010.87,0004.84,0004.29
2022-07-30 01:53:00,,0829.9,4.99,0.00,29.7,27.4,00.0,38.4,31.4,34.6,0000.0,0010.53,0004.87,0004.29
2022-07-30 01:54:00,,0829.9,5.00,0.00,29.7,27.6,00.0,38.4,31.4,34.2,0000.0,0010.07,0004.85,0004.28
2022-07-30 01:55:00,,0829.9,5.01,0.00,29.7,27.8,00.0,38.4,31.5,33.8,0000.0,0010.23,0004.89,0004.27
2022-07-30 01:56:00,,0829.8,5.00,0.00,29.8,28.0,00.0,38.4,31.5,33.6,0000.0,0010.19,0004.87,0004.26
2022-07-30 01:57:00,,0829.9,5.00,0.00,29.8,28.1,00.0,38.4,31.5,33.4,0000.0,0010.95,0004.87,0004.25
2022-07-30 01:58:00,,0829.9,5.00,0.00,29.8,28.2,00.0,38.4,31.6,33.4,0000.0,0011.40,0004.86,0004.24
2022-07-30 01:59:00,,0829.9,4.99,0.00,29.8,28.4,00.0,38.4,31.6,33.4,0000.0,0010.89,0004.84,0004.22
